Simultaneous Nadir Overpasses (SNOs) Predictions

Prediction of SNOs between NOAA-20 and NOAA-19 Satellite Orbit:

Table of predicted SNOs for the next 14.0 days since TLE Epoch: 7/20/2024
Index Date (NOAA-20) Time (NOAA-20) Lat,Lon (NOAA-20) SZA (NOAA-20 ) Date (NOAA-19) Time (NOAA-19) Lat,Lon (NOAA-19) SZA (NOAA-19 ) Distance(km) Time Diff (sec)
1 07/25/2024 12:34:14 -72.39, 163.85 126.92 07/25/2024 12:33:05 -72.42, 161.72 126.73 71.73 69
2 07/25/2024 13:25:11 72.93, -29.96 53.70 07/25/2024 13:23:58 72.92, -29.97 53.70 2.01 73
3 07/25/2024 14:15:55 -72.95, 137.33 126.28 07/25/2024 14:14:52 -72.96, 137.39 126.27 2.26 63
4 07/25/2024 15:06:41 72.94, -55.34 53.72 07/25/2024 15:05:55 72.96, -55.36 53.75 2.14 46
5 07/25/2024 15:57:25 -72.96, 111.94 126.26 07/25/2024 15:56:50 -72.95, 111.89 126.26 2.04 35
6 07/25/2024 16:48:12 72.99, -80.84 53.79 07/25/2024 16:47:52 73.00, -80.76 53.80 2.46 20
7 07/25/2024 17:38:56 -73.01, 86.45 126.19 07/25/2024 17:38:47 -72.99, 86.49 126.21 2.75 9
8 07/25/2024 18:29:42 73.00,-106.22 53.81 07/25/2024 18:29:50 72.99,-106.27 53.81 1.92 8
9 07/25/2024 19:20:26 -73.01, 61.07 126.17 07/25/2024 19:20:44 -73.03, 61.09 126.16 1.80 18
10 07/25/2024 20:11:13 73.05,-131.71 53.89 07/25/2024 20:11:47 73.03,-131.67 53.86 3.06 34
11 07/25/2024 21:01:56 -73.02, 35.68 126.15 07/25/2024 21:02:42 -73.02, 35.58 126.15 3.18 46
12 07/25/2024 21:52:43 73.06,-157.10 53.91 07/25/2024 21:53:44 73.07,-157.06 53.91 1.77 61
13 07/25/2024 22:43:27 -73.07, 10.19 126.07 07/25/2024 22:44:39 -73.06, 10.19 126.10 1.41 72
14 07/25/2024 23:34:24 73.62, 176.28 54.55 07/25/2024 23:35:32 73.56, 178.58 54.34 72.61 68



Historial Predications of SNOs between NOAA-20 and NOAA-19
